Weather reports worldwide

Advertisment
Figari, France (7780): temperature & dewpoint: 10.09.2019 17:00:00 - 16.09.2019 17:00:00 (CEST)Figari, France (7780): temperature 5cm: 10.09.2019 17:00:00 - 16.09.2019 17:00:00 (CEST)Figari, France (7780): wind speed & gusts: 10.09.2019 17:00:00 - 16.09.2019 17:00:00 (CEST)Figari, France (7780): wind direction: 10.09.2019 17:00:00 - 16.09.2019 17:00:00 (CEST)Figari, France (7780): reduced air pressure: 10.09.2019 17:00:00 - 16.09.2019 17:00:00 (CEST)Figari, France (7780): visibility: 10.09.2019 17:00:00 - 16.09.2019 17:00:00 (CEST)Figari, France (7780): precipitation: 10.09.2019 17:00:00 - 16.09.2019 17:00:00 (CEST)
Date & Time tt [°C] td [°C] tt 5cm [°C] ff [km/h] ff [kn] fx [km/h] fx [kn] dd ppp [hPa] vv [km] rr [mm]
16.09.2019 17:00:00 29,6 18,1 31,9 8 5 25 14 SSE 1017,3 29 0,0
16.09.2019 16:00:00 30,8 18,9 43,3 14 7 29 16 WSW 1017,6 40 0,0
16.09.2019 15:00:00 30,9 18,6 44,1 14 8 34 18 WSW 1018,1 20 0,0
16.09.2019 14:00:00 30,9 18,6 40,6 6 3 20 11 SE 1018,4 30 0,0
16.09.2019 13:00:00 30,0 18,4 39,0 9 5 25 14 SSE 1019,0 20 0,0
16.09.2019 12:00:00 28,9 19,0 39,0 12 7 25 13 SSE 1019,5 32 0,0
16.09.2019 11:00:00 28,7 15,9 34,3 7 4 20 11 ESE 1020,0 52 0,0
16.09.2019 10:00:00 27,1 15,5 29,3 9 5 19 10 E 1020,2 50 0,0
16.09.2019 09:00:00 24,7 18,6 20,7 11 6 19 11 ENE 1019,9 42 0,0
16.09.2019 08:00:00 21,1 16,9 19,2 6 3 18 10 NE 1019,9 43 0,0
16.09.2019 07:00:00 21,1 17,5 18,5 11 6 19 10 ENE 1019,7 45 0,0
16.09.2019 06:00:00 20,4 16,8 18,3 11 6 18 10 ENE 1019,5 44 0,0
16.09.2019 05:00:00 20,5 16,9 17,9 11 6 17 9 ENE 1019,8 44 0,0
16.09.2019 04:00:00 20,0 17,6 18,3 8 4 15 8 NNE 1020,0 39 0,0
16.09.2019 03:00:00 21,2 18,2 17,5 8 5 16 8 E 1020,3 39 0,0
16.09.2019 02:00:00 20,8 18,0 18,1 8 4 21 11 NE 1020,8 42 0,0
16.09.2019 01:00:00 20,9 18,3 18,4 14 8 22 12 ENE 1020,8 39 0,0
16.09.2019 00:00:00 21,1 18,7 17,3 12 7 15 8 ENE 1021,2 42 0,0
15.09.2019 23:00:00 21,9 18,7 19,5 10 5 23 13 ENE 1021,1 45 0,0
15.09.2019 22:00:00 22,4 19,0 20,3 11 6 19 10 ENE 1021,6 43 0,0
15.09.2019 21:00:00 23,3 18,6 21,9 10 6 23 13 ENE 1021,7 56 0,0
15.09.2019 20:00:00 24,3 16,3 22,2 13 7 22 12 NE 1021,3 60 0,0
15.09.2019 19:00:00 26,1 14,2 25,1 14 7 21 11 NE 1021,1 60 0,0
15.09.2019 18:00:00 28,0 15,3 28,4 11 6 24 13 SW 1021,5 57 0,0
15.09.2019 17:00:00 28,9 14,3 31,2 12 7 25 13 ENE 1021,5 58 0,0
15.09.2019 16:00:00 30,0 13,3 33,6 12 6 29 16 E 1021,6 56 0,0
15.09.2019 15:00:00 31,3 14,0 39,0 17 9 37 20 E 1021,8 60 0,0
15.09.2019 14:00:00 30,7 13,0 38,7 17 9 34 18 E 1022,7 60 0,0
15.09.2019 13:00:00 30,4 13,2 39,5 16 8 32 17 E 1023,2 60 0,0
15.09.2019 12:00:00 30,3 13,6 41,0 15 8 29 16 E 1023,6 60 0,0
15.09.2019 11:00:00 29,5 11,1 35,0 9 5 26 14 E 1024,1 47 0,0
15.09.2019 10:00:00 27,7 11,3 26,6 16 9 31 17 ENE 1024,0 60 0,0
15.09.2019 09:00:00 24,3 14,7 15,1 7 4 12 6 ENE 1023,8 60 0,0
15.09.2019 08:00:00 14,8 13,2 11,1 2 1 10 5 N 1024,2 55 0,0
15.09.2019 07:00:00 13,9 12,3 10,7 7 4 12 7 NE 1024,0 47 0,0
15.09.2019 06:00:00 14,2 12,2 11,1 3 2 11 6 N 1024,0 54 0,0
15.09.2019 05:00:00 15,1 12,8 11,7 10 5 11 6 NNE 1023,9 50 0,0
15.09.2019 04:00:00 16,1 13,4 12,5 7 4 10 5 NNE 1023,9 49 0,0
15.09.2019 03:00:00 18,9 14,4 12,4 7 4 20 11 E 1023,7 59 0,0
15.09.2019 02:00:00 16,1 13,2 12,0 10 5 14 8 NE 1024,3 53 0,0
15.09.2019 01:00:00 16,6 12,9 12,7 9 5 12 7 NNE 1024,7 56 0,0
15.09.2019 00:00:00 17,5 13,4 13,4 8 4 15 8 NNE 1024,8 51 0,0
14.09.2019 23:00:00 18,9 14,2 14,8 11 6 20 11 NE 1024,5 56 0,0
14.09.2019 22:00:00 20,4 14,1 16,2 13 7 23 12 ENE 1024,2 60 0,0
14.09.2019 21:00:00 21,6 13,8 17,7 8 4 19 11 NE 1024,5 60 0,0
14.09.2019 20:00:00 23,2 13,4 19,6 10 6 27 14 NE 1024,4 60 0,0
14.09.2019 19:00:00 25,1 13,3 24,0 16 9 40 21 E 1024,0 58 0,0
14.09.2019 18:00:00 26,9 11,8 26,8 23 12 47 26 ENE 1023,5 41 0,0
14.09.2019 17:00:00 28,0 11,5 30,4 21 11 40 22 ENE 1023,5 29 0,0
14.09.2019 16:00:00 28,4 13,5 33,0 19 10 44 24 ENE 1024,4 48 0,0
14.09.2019 15:00:00 29,2 15,3 36,2 24 13 41 22 NE 1024,2 53 0,0
14.09.2019 14:00:00 29,7 16,8 35,6 20 11 39 21 E 1025,0 58 0,0
14.09.2019 13:00:00 29,3 13,9 37,9 21 11 38 21 E 1025,4 37 0,0
14.09.2019 12:00:00 29,8 11,8 38,9 24 13 42 23 ENE 1025,4 60 0,0
14.09.2019 11:00:00 29,6 11,6 36,1 21 11 40 21 ENE 1025,5 20 0,0
14.09.2019 10:00:00 28,1 11,2 29,3 20 11 33 18 ENE 1025,8 55 0,0
14.09.2019 09:00:00 25,1 12,3 17,9 3 2 7 4 ENE 1026,0 49 0,0
14.09.2019 08:00:00 19,1 12,6 13,6 3 1 16 9 SSE 1026,1 41 0,0
14.09.2019 07:00:00 18,5 10,3 13,2 14 7 19 10 NE 1025,3 40 0,0
14.09.2019 06:00:00 19,6 11,4 14,8 9 5 24 13 ENE 1025,1 41 0,0
14.09.2019 05:00:00 19,6 12,1 15,4 14 8 28 15 NE 1025,1 39 0,0
14.09.2019 04:00:00 19,9 12,2 16,4 14 8 37 20 NE 1024,8 38 0,0
14.09.2019 03:00:00 21,6 13,8 18,2 21 11 34 19 ENE 1025,0 34 0,0
14.09.2019 02:00:00 22,1 14,7 16,6 22 12 36 20 ENE 1025,3 31 0,0
14.09.2019 01:00:00 20,7 14,6 15,3 17 9 30 16 NE 1025,8 28 0,0
14.09.2019 00:00:00 19,5 14,9 15,4 13 7 19 11 NE 1026,1 28 0,0
13.09.2019 23:00:00 20,2 16,0 15,6 11 6 23 12 ENE 1026,4 20 0,0
13.09.2019 22:00:00 19,9 15,9 14,7 11 6 16 9 ENE 1026,4 26 0,0
13.09.2019 21:00:00 21,0 15,8 16,9 11 6 22 12 NE 1026,2 29 0,0
13.09.2019 20:00:00 22,9 15,0 17,8 8 5 22 12 NNE 1026,2 35 0,0
13.09.2019 19:00:00 26,2 13,7 23,2 14 8 34 19 NE 1026,0 45 0,0
13.09.2019 18:00:00 28,1 12,8 27,3 16 9 41 22 ENE 1025,9 37 0,0
13.09.2019 17:00:00 28,9 11,5 30,7 22 12 42 23 ENE 1025,7 36 0,0
13.09.2019 16:00:00 29,5 12,0 38,6 20 11 48 26 ENE 1025,7 19 0,0
13.09.2019 15:00:00 30,3 12,2 40,0 24 13 48 26 ENE 1026,1 20 0,0
13.09.2019 14:00:00 29,8 13,1 37,2 23 12 45 24 E 1026,6 32 0,0
13.09.2019 13:00:00 29,5 12,9 38,6 24 13 50 27 ENE 1026,8 33 0,0
13.09.2019 12:00:00 28,7 14,9 35,9 23 12 51 28 ENE 1027,0 35 0,0
13.09.2019 11:00:00 27,7 14,0 34,7 22 12 45 25 E 1026,8 40 0,0
13.09.2019 10:00:00 26,6 13,3 28,6 21 11 36 19 ENE 1027,0 34 0,0
13.09.2019 09:00:00 24,7 11,3 16,2 12 7 22 12 NE 1027,0 43 0,0
13.09.2019 08:00:00 16,4 12,4 10,2 7 4 10 5 W 1027,1 39 0,0
13.09.2019 07:00:00 14,0 10,2 10,1 7 4 10 5 NNE 1026,7 46 0,0
13.09.2019 06:00:00 15,4 11,0 11,4 7 4 10 5 NE 1026,8 50 0,0
13.09.2019 05:00:00 20,2 11,7 12,8 8 4 18 10 W 1026,7 59 0,0
13.09.2019 04:00:00 20,8 10,3 11,3 10 6 26 14 E 1026,2 59 0,0
13.09.2019 03:00:00 13,8 11,7 10,8 8 4 12 6 ENE 1026,8 34 0,0
13.09.2019 02:00:00 14,3 12,8 11,3 4 2 10 5 N 1027,2 36 0,0
13.09.2019 01:00:00 15,4 12,7 12,1 7 4 11 6 NNE 1027,2 44 0,0
13.09.2019 00:00:00 15,6 13,4 12,4 5 3 8 4 N 1027,1 40 0,0
12.09.2019 23:00:00 18,2 14,3 13,9 3 2 13 7 N 1026,7 47 0,0
12.09.2019 22:00:00 19,0 14,5 14,8 9 5 10 6 NNE 1026,3 52 0,0
12.09.2019 21:00:00 23,2 15,5 17,4 8 5 15 8 NNE 1026,5 60 0,0
12.09.2019 20:00:00 23,8 15,6 20,7 9 5 30 16 ENE 1026,0 60 0,0
12.09.2019 19:00:00 26,2 16,7 24,7 17 9 43 23 ENE 1025,6 50 0,0
12.09.2019 18:00:00 28,5 13,2 27,9 23 12 39 21 NE 1025,4 59 0,0
12.09.2019 17:00:00 29,5 15,6 31,8 19 11 32 18 E 1025,4 48 0,0
12.09.2019 16:00:00 29,5 14,5 38,1 18 10 37 20 E 1025,9 19 0,0
12.09.2019 15:00:00 29,7 14,3 39,2 16 9 38 20 E 1025,9 57 0,0
12.09.2019 14:00:00 29,5 12,4 40,6 19 10 36 19 E 1026,3 59 0,0
12.09.2019 13:00:00 29,8 11,8 41,7 8 4 27 15 N 1026,5 60 0,0
12.09.2019 12:00:00 29,7 10,3 40,7 13 7 27 15 ENE 1026,4 47 0,0
12.09.2019 11:00:00 29,2 10,3 34,9 11 6 31 17 E 1026,4 52 0,0
12.09.2019 10:00:00 27,5 12,7 28,5 14 8 29 15 E 1025,9 53 0,0
12.09.2019 09:00:00 24,4 16,1 19,0 15 8 29 16 ENE 1025,5 42 0,0
12.09.2019 08:00:00 20,3 15,7 14,0 14 7 21 11 NE 1025,2 53 0,0
12.09.2019 07:00:00 16,6 13,7 14,0 10 5 14 7 NNE 1024,8 49 0,0
12.09.2019 06:00:00 18,3 14,6 14,6 11 6 17 9 ENE 1023,8 46 0,0
12.09.2019 05:00:00 19,3 15,2 13,5 8 5 27 14 ENE 1023,4 48 0,0
12.09.2019 04:00:00 16,2 14,2 13,2 9 5 15 8 N 1023,2 50 0,0
12.09.2019 03:00:00 17,2 14,7 13,8 7 4 16 9 NNE 1022,8 51 0,0
12.09.2019 02:00:00 17,9 15,5 14,7 5 3 16 9 NE 1022,7 47 0,0
12.09.2019 01:00:00 19,8 16,4 16,5 5 3 22 12 WSW 1022,8 46 0,0
12.09.2019 00:00:00 20,1 15,9 15,3 10 5 20 11 E 1022,3 48 0,0
11.09.2019 23:00:00 18,0 14,5 14,8 11 6 18 10 NE 1022,4 51 0,0
11.09.2019 22:00:00 18,2 16,4 15,2 4 2 6 3 NNE 1021,7 46 0,0
11.09.2019 21:00:00 20,2 17,2 16,8 5 3 11 6 NNE 1021,6 43 0,0
11.09.2019 20:00:00 22,2 17,6 19,1 4 2 15 8 SSE 1021,1 12 0,0
11.09.2019 19:00:00 25,2 17,7 25,1 11 6 29 15 SW 1020,9 59 0,0
11.09.2019 18:00:00 25,9 17,0 26,3 19 10 27 15 SW 1020,3 57 0,0
11.09.2019 17:00:00 28,7 15,6 31,4 6 3 25 14 ENE 1019,4 51 0,0
11.09.2019 16:00:00 27,8 16,1 32,5 13 7 30 16 E 1019,3 58 0,0
11.09.2019 15:00:00 28,6 16,8 38,7 17 9 38 21 ENE 1019,3 54 0,0
11.09.2019 14:00:00 28,7 17,2 39,9 21 11 37 20 ENE 1019,4 42 0,0
11.09.2019 13:00:00 29,1 15,6 38,7 20 11 44 24 E 1019,1 20 0,0
11.09.2019 12:00:00 28,7 15,2 35,2 21 11 47 26 ENE 1018,2 40 0,0
11.09.2019 11:00:00 27,1 14,8 30,1 27 15 47 25 ENE 1017,7 42 0,0
11.09.2019 10:00:00 25,5 14,9 24,3 25 14 48 26 ENE 1017,0 43 0,0
11.09.2019 09:00:00 23,5 15,8 19,0 22 12 39 21 ENE 1016,4 43 0,0
11.09.2019 08:00:00 20,6 16,0 17,0 20 11 32 18 ENE 1016,4 35 0,0
11.09.2019 07:00:00 19,7 16,0 16,3 19 11 33 18 ENE 1015,7 54 0,0
11.09.2019 06:00:00 19,3 15,0 16,1 18 10 31 17 ENE 1015,3 52 0,0
11.09.2019 05:00:00 19,3 15,0 16,1 18 10 34 18 ENE 1014,7 60 0,0
11.09.2019 04:00:00 18,4 15,6 16,1 11 6 26 14 NE 1015,0 50 0,0
11.09.2019 03:00:00 19,4 16,4 17,3 13 7 29 16 E 1014,7 52 0,6
11.09.2019 02:00:00 20,6 17,8 19,0 14 8 32 18 E 1014,5 19 0,2
11.09.2019 01:00:00 20,7 18,1 19,1 16 8 43 23 ENE 1014,4 20 12,6
11.09.2019 00:00:00 22,7 16,9 21,7 17 9 43 23 E 1013,9 59 0,0
10.09.2019 23:00:00 22,7 17,4 21,7 19 11 40 21 ENE 1013,7 57 0,0
10.09.2019 22:00:00 23,1 18,2 22,1 18 10 37 20 ENE 1013,6 53 0,0
10.09.2019 21:00:00 23,0 16,8 21,9 16 9 42 23 ENE 1013,0 60 0,0
10.09.2019 20:00:00 22,9 16,0 22,1 22 12 47 26 ENE 1012,2 60 0,0
10.09.2019 19:00:00 23,3 15,4 22,9 25 13 51 28 ENE 1012,0 60 0,0
10.09.2019 18:00:00 24,1 15,3 24,5 26 14 53 29 NE 1011,7 52 0,0
10.09.2019 17:00:00 25,4 14,5 29,2 30 16 55 30 NE 1011,2 40 0,0

tt = temperature
td = dewpoint
tt 5cm = temperature 5cm
ff = wind speed
fx = gusts
dd = wind direction
ppp = reduced air pressure
vv = visibility
rr = precipitation

Next stations